Location: Rockford
(42.2710°N, 89.0940°W)
Time: 17:28:06
(UTC-05:00)

Daily predictions for brighter satellites

Satellite Brightness Start Highest point End
(mag) Time Altitude Azimuth Time Altitude Azimuth Time Altitude Azimuth
Cosmos 1821 Rocket 4.1 20:03:22 10° S 20:09:28 85° W 20:15:36 10° N
Cosmos 1605 Rocket 4.1 20:06:28 10° S 20:12:39 60° E 20:18:49 10° NNE
CZ-4B DEB 2.8 20:10:24 10° SSE 20:13:40 84° ENE 20:16:58 10° N
Tiangong 1 1.0 20:12:45 10° W 20:15:52 82° N 20:18:49 11° E
RESURS DK-1 3.7 20:13:01 10° N 20:16:27 24° NE 20:19:37 11° ESE
Spot 2 Rocket 4.3 20:11:44 10° S 20:16:43 55° W 20:21:43 10° NNW
NOSS 7 (H) 4.3 20:14:12 10° SSW 20:17:30 79° SE 20:20:57 10° NE
Cosmos 1697 Rocket 3.2 20:13:30 10° SSE 20:18:34 35° ESE 20:23:38 10° NE
Cosmos 2208 Rocket 4.3 20:14:48 10° SSW 20:20:07 75° WNW 20:25:34 10° NNE
H-2A R/B 3.9 20:20:46 10° E 20:22:51 14° ENE 20:24:58 10° NNE
Iridium 4 Rocket 3.7 20:18:32 10° N 20:23:19 42° E 20:27:39 10° SSE
Cosmos 1626 Rocket 3.6 20:20:17 10° N 20:24:38 57° E 20:28:54 10° SSE
BREEZE-M DEB (TANK) 4.1 20:20:50 10° SW 20:24:42 68° SE 20:38:16 10° ENE
Cosmos 2298 Rocket 4.3 20:21:19 10° N 20:26:31 52° ENE 20:31:42 10° SE
Envisat 4.1 20:23:25 11° ESE 20:27:18 26° ENE 20:31:29 10° N
Cosmos 1937 Rocket 4.2 20:23:00 10° N 20:27:52 36° ENE 20:32:03 13° SE
Cosmos 2278 4.0 20:22:49 10° SSW 20:28:29 73° WNW 20:34:13 10° NNE
Cosmos 2084 3.5 20:25:33 10° NNW 20:29:34 62° NE 20:33:09 14° SE
Cosmos 1455 Rocket 3.5 20:25:18 10° SSW 20:29:36 66° W 20:33:57 10° N
Cosmos 1602 Rocket 3.5 20:29:58 10° N 20:34:26 73° E 20:38:50 10° SSE
Cosmos 220 Rocket 3.9 20:34:18 10° NNW 20:38:33 86° WSW 20:42:45 10° SSE
H-2A R/B 3.0 20:37:12 10° S 20:41:05 73° WSW 20:45:02 10° NNW
Lacrosse 5 2.0 20:36:14 10° NW 20:41:16 62° NE 20:44:53 19° ESE
Cosmos 1980 Rocket 2.8 20:37:05 10° SSE 20:42:06 33° ESE 20:47:09 10° NE
Cosmos 2123 Rocket 4.4 20:36:04 10° NNW 20:42:12 66° W 20:48:18 10° S
Cosmos 2369 4.3 20:37:26 10° SW 20:43:02 63° WNW 20:48:44 10° NNE
EO 1 Delta rocket 4.2 20:43:23 10° N 20:48:06 76° W 20:53:35 10° SSW
Cosmos 1975 3.0 20:45:40 10° S 20:49:46 79° W 20:53:53 10° N
SPOT 5 4.0 20:49:22 20° ESE 20:51:32 27° ENE 20:55:30 10° N
Cosmos 1459 Rocket 4.1 20:45:51 10° SSE 20:51:36 48° E 20:57:26 10° NNE
Cosmos 2150 Rocket 3.9 20:47:05 10° NNW 20:52:16 76° ENE 20:56:29 16° SSE
ERS-1 Rocket 3.1 20:48:21 15° SSE 20:52:25 56° ENE 20:57:19 10° N
Lacrosse 5 rocket 2.7 20:52:00 10° WNW 20:55:14 29° SW 20:57:58 12° S
BREEZE-M TANK 3.4 20:42:50 10° WNW 20:55:42 89° N 20:58:04 24° ESE
Cosmos 1666 4.4 21:00:58 18° ENE 21:00:58 18° ENE 21:02:44 10° NE
Cosmos 1656 3.8 20:56:32 10° SSW 21:02:09 76° WNW 21:07:43 10° NNE
Cosmos 2058 Rocket 4.2 21:03:45 25° E 21:03:54 25° E 21:07:34 10° NE
Cosmos 1763 Rocket 3.8 20:59:53 10° S 21:04:38 41° ESE 21:09:23 10° NE
SJ-11-01 4.2 21:01:23 16° SSE 21:05:05 81° ENE 21:09:47 10° N
Cosmos 2263 Rocket 4.0 21:03:47 10° N 21:07:08 16° NE 21:09:09 13° ENE
Resurs 01 Rocket 4.5 21:04:56 10° SW 21:07:33 15° W 21:10:12 10° NW
Cosmos 1606 Rocket 3.9 21:06:33 28° SE 21:08:17 42° E 21:12:28 10° NNE
Cosmos 1898 Rocket 3.7 21:03:03 10° NNW 21:08:21 74° WSW 21:12:34 16° S
CZ-4 DEB 2.7 21:07:23 31° S 21:08:46 82° W 21:11:56 10° NNW
DELTA 2 R/B (1) 4.3 21:05:22 10° W 21:10:32 40° SSW 21:13:06 25° SSE
Cosmos 1500 3.5 21:07:11 10° SSW 21:10:54 67° W 21:14:41 10° N
Cosmos 2227 Rocket 3.9 21:06:15 10° NW 21:11:07 30° WSW 21:15:58 10° SSW
Cosmos 2322 Rocket 3.4 21:16:55 22° E 21:16:55 22° E 21:20:05 10° NE
YAOGAN 6 3.7 21:16:13 28° ENE 21:16:13 28° ENE 21:19:18 10° N
Terra 4.1 21:15:54 10° ENE 21:16:05 10° ENE 21:16:35 10° NE
Cosmos 1340 2.6 21:15:53 10° N 21:19:40 62° E 21:20:21 51° SE
OAO 2 Rocket 4.1 21:17:12 10° WSW 21:21:47 36° S 21:22:50 32° SSE
Cosmos 468 Rocket 4.3 21:17:05 10° SSW 21:22:10 66° WNW 21:27:18 10° NNE
USA 215 4.4 21:18:44 15° ENE 21:23:24 33° NNE 21:29:06 10° NW
Meteor 1-21 4.2 21:20:17 10° N 21:26:04 73° ENE 21:29:03 30° SSE
Cosmos 2297 Rocket 3.7 21:21:17 10° NW 21:26:14 32° WSW 21:31:10 10° SSW
Cosmos 1939 Rocket 3.0 21:25:01 31° S 21:26:55 77° WSW 21:31:07 10° NNW
Cosmos 841 Rocket 3.5 21:23:26 13° S 21:28:02 59° ESE 21:33:10 10° NNE
Meteor 2-9 Rocket 4.4 21:26:58 37° SE 21:28:18 44° E 21:33:23 10° NNE
Cosmos 2360 4.2 21:24:09 10° S 21:29:44 59° ESE 21:35:22 10° NNE
Cosmos 1802 Rocket 4.0 21:23:27 10° S 21:29:51 83° E 21:36:19 10° N
Cosmos 1726 Rocket 3.5 21:30:18 48° SSE 21:31:18 64° E 21:35:39 10° NNE
Cosmos 1814 Rocket 4.5 21:28:34 10° SSW 21:33:51 63° WNW 21:39:08 10° NNE
Cosmos 2227 4.1 21:29:37 10° NNW 21:35:24 78° ENE 21:37:27 42° SE
MetOp-A 4.1 21:33:48 42° SE 21:35:29 63° ENE 21:40:48 10° N
Cosmos 2016 Rocket 3.8 21:35:00 16° S 21:39:59 83° E 21:46:13 10° N
ASTEX 1 3.3 21:39:23 10° N 21:44:24 73° E 21:45:35 51° SSE
Cosmos 1825 Rocket 4.0 21:40:51 10° NNW 21:45:12 57° W 21:46:50 34° SSW
Cosmos 1743 4.0 21:48:12 17° SW 21:50:51 41° WNW 21:54:35 10° N
Tiangong 1 3.1 21:49:19 10° W 21:50:47 23° W 21:50:47 23° W
BREEZE-M DEB (TANK) 2.4 21:51:20 10° WNW 21:53:28 68° WNW 21:53:28 68° WNW
RESURS DK-1 3.8 21:50:52 10° NW 21:54:31 31° WSW 21:55:34 27° SW
Cosmos 1953 Rocket 4.0 21:51:48 10° NNW 21:56:12 61° W 21:57:08 48° SW
H-2A R/B 2.4 21:57:54 50° SW 21:58:23 54° WSW 22:02:28 10° NNW
Cosmos 1697 Rocket 4.3 21:57:20 10° WSW 22:02:29 35° WNW 22:07:40 10° N
USA 245 4.4 22:02:15 54° SSE 22:03:48 82° ENE 22:10:09 10° N
SL-08 RB Rocket 4.1 22:05:54 52° NE 22:05:54 52° NE 22:09:51 10° N
Envisat 4.1 22:03:39 24° SSW 22:06:07 38° W 22:10:52 10° NNW
Cosmos 2228 3.6 22:07:21 48° NNE 22:07:21 48° NNE 22:10:30 10° N
Cosmos 1864 Rocket 4.3 22:06:14 45° S 22:08:18 90° SW 22:14:28 10° N
SL-16 R/B 2.2 22:13:10 62° ENE 22:13:10 62° ENE 22:18:09 10° NNE
NOAA 11 4.0 22:13:22 77° SE 22:13:44 84° ENE 22:19:14 10° NNW
Cosmos 1758 Rocket 4.4 22:10:37 10° NNW 22:14:44 43° W 22:15:05 42° WSW
ARGOS 3.0 22:16:23 83° SE 22:16:36 87° ENE 22:22:01 10° NNW
Tsikada Rocket 4.1 22:11:17 10° N 22:17:43 78° W 22:19:18 53° SSW
SL-19 R/B 4.0 22:15:54 10° NNE 22:21:22 84° WNW 22:21:42 78° SW
CZ-4B R/B 3.9 22:16:36 10° NNE 22:20:03 48° NNE 22:20:03 48° NNE
Cosmos 2346 Rocket 4.5 22:17:11 10° N 22:23:18 63° ENE 22:23:18 63° ENE
Lacrosse 5 3.5 22:19:53 10° WNW 22:23:51 24° WSW 22:24:05 23° SW
Cosmos 1980 Rocket 3.6 22:20:47 10° SW 22:26:00 37° WNW 22:31:18 10° N
Cosmos 2360 Rocket 4.1 22:30:08 17° NE 22:30:08 17° NE 22:31:28 10° NE
H-2A R/B 2.6 22:27:29 46° NNE 22:27:29 46° NNE 22:31:15 10° N
SPOT 5 4.1 22:28:37 34° WSW 22:29:27 36° W 22:33:54 10° NNW
Meteor 2-17 Rocket 4.3 22:36:21 79° SW 22:36:39 82° W 22:42:44 10° N
BREEZE-M DEB (TANK) 3.9 22:25:46 10° SW 22:37:37 83° SSE 22:37:37 83° SSE
SPOT 1/Viking Rocket 4.3 22:45:54 46° W 22:45:54 46° W 22:50:48 10° NNW
Cosmos 2263 Rocket 2.5 22:46:16 10° NNW 22:50:51 61° NNW 22:50:51 61° NNW
Terra 3.0 22:54:47 39° N 22:54:47 39° N 22:57:48 10° NNW
Meteor 2-5 Rocket 4.0 22:50:30 10° NNW 22:55:38 67° NNW 22:55:38 67° NNW
Cosmos 2322 Rocket 2.9 22:58:39 46° W 22:59:21 49° WNW 23:04:49 10° NNE
Cosmos 2233 Rocket 4.5 23:03:44 51° W 23:04:16 53° WNW 23:10:23 10° N
USA 215 3.2 23:06:05 78° N 23:06:05 78° N 23:12:24 10° NW
Meteor 1-24 Rocket 4.4 23:05:28 10° N 23:10:08 55° N 23:10:08 55° N
ATLAS CENTAUR R/B 4.2 23:29:28 66° ESE 23:29:28 66° ESE 23:50:34 10° NE
Cosmos 2278 Rocket 4.0 23:37:00 10° N 23:40:20 25° NNE 23:40:20 25° NNE
